Location: Kershaw
(34.5481°N, 80.5823°W)
Time: 11:56:47
(UTC+00:00)

A-11 Canister half - Pass Details

Date: 05 October 2022
Orbit: 1524 x 1685 km, 47.3° (Epoch: 25 November)

Event Time Altitude Azimuth Distance (km) Brightness Sun altitude
Rises 03:05:24 0° 303° (WNW) 4,734 12.2 -48.4°
Reaches altitude 10° 03:08:29 10° 300° (WNW) 3,767 11.5 -48.9°
Enters shadow 03:13:32 35° 287° (WNW) 2,349 10.1 -49.6°
